TIANWANG 1B (TW-1B)
1 40927U 15051C   20002.23723241  .00009829  00000-0  13151-3 0  9994
2 40927  97.1126  52.3414 0007701  23.5773  48.9131 15.58185785240736
TIANWANG 1A (TW-1A)
1 40928U 15051D   20002.18773881  .00001899  00000-0  46781-4 0  9999
2 40928  97.1267  34.0183 0012675  77.2587 355.1456 15.41742557239591
LAPAN A2
1 40931U 15052B   19359.88757643  .00000532  00000-0 -14754-4 0  9991
2 40931   5.9859 140.5424 0010111 333.4127  26.3464 14.76619879229413
LQSAT
1 40958U 15057A   20001.81978261 +.00000002 +00000-0 +79595-5 0  9991
2 40958 097.8768 070.4484 0017403 332.5079 027.5207 14.73102314227835
CHUBUSAT 2
1 41338U 16012B   20002.10501876  .00000247  00000-0  12413-4 0  9999
2 41338  31.0044 330.1210 0013825 258.4208 101.4876 15.00225933212586
CHUBUSAT 3
1 41339U 16012C   20002.31787084  .00000234  00000-0  11381-4 0  9999
2 41339  31.0142 326.6105 0013597 269.0849  90.8229 15.00395847212613
OUFTI-1
1 41458U 16025C   20002.18240306  .00000498  00000-0  29163-4 0  9990
2 41458  98.0995 104.0970 0166046  53.1709 308.4617 15.06351687202299
E-STAR-2
1 41459U 16025D   20002.31446621  .00000522  00000-0  30480-4 0  9996
2 41459  98.0997 103.7767 0167679  54.4217 307.2513 15.05954030202284
AAUSAT 4
1 41460U 16025E   20002.23095977  .00000934  00000-0  49919-4 0  9997
2 41460  98.0970 105.4674 0156729  45.3439 316.0477 15.08044921202438
NUSAT 1
1 41557U 16033B   20002.36826429  .00000819  00000-0  33021-4 0  9990
2 41557  97.4112  93.6959 0012602 324.8407  35.1999 15.27633021200264
BEESAT 4
1 41619U 16040W   20001.84123319 +.00000925 +00000-0 +41509-4 0  9995
2 41619 097.3439 065.1631 0012495 055.6719 304.5698 15.23577911183877
PRATHAM
1 41783U 16059A   20002.39206912  .00000035  00000-0  15859-4 0  9990
2 41783  98.0424  62.3301 0034746 121.2380 239.2234 14.63029645174454
ALSAT 1N
1 41789U 16059G   20002.27998811  .00000070  00000-0  22162-4 0  9993
2 41789  98.0456  64.6565 0029632 110.3529 250.0865 14.64287364174562
NAYIF 1
1 42017U 17008BX  20001.84202911 +.00001049 +00000-0 +43560-4 0  9996
2 42017 097.3819 071.7078 0006129 179.1443 180.9807 15.26021147159984
MAX VALIER SAT
1 42778U 17036P   20001.87534894 +.00000596 +00000-0 +28800-4 0  9998
2 42778 097.3299 059.9400 0010794 248.4042 111.6045 15.22327237140233
